Baker Lake Airport
CYBK : now visible

Airfield :











YOU CAN JOIN US ON...

 
LOGIN :

Register | Disclaimer

   EN    FR    IT 

 









Legend :    VFR   Marginal VFR   IFR   Intensive IFR   Very Intensive IFR
Visi :
Ceiling :
>= 8 km
>= 3000ft
5 to 8 km
1000 to 3000 ft
1500m to 5 km
500 to 1000 ft
800 to 1500m
200 to 500 ft
< 800m
< 200 ft
Symbols :   Thunderstorms  Fog  Heavy snow  Heavy precipitations  Wind > 20 kt






- Airport Elevation : 59 ft
- IATA code : YBK


CYBK - Baker Lake

CURRENT METAR :
  • 200800Z 29022KT 15SM IC DRSN FEW190 M30/M34 A2989 RMK AC1 SLP128

EXPIRED METARs :
  • 200709Z 29021KT 15SM IC DRSN FEW190 M31/M35 A2991 RMK AC1 WSHFT 0700 PRESFR SLP133
  • 200600Z 29024KT 15SM IC DRSN FEW190 M31/M35 A2993 RMK AC1 SLP139

TAF TAF CYBK
Valid from the 20 at 06:00 until the 20 at 18:00 UTC


200540Z 2006/2018 30018KT P6SM FEW120
BECMG 2013/2015 VRB03KT RMK NXT FCST BY 201200Z
CZEG FIR / North America



MET'MAP, your aeronautical weather chart ! - Copyright ORBIFLY December 2007 - Disclaimer

ORBIFLY MET'MAP TEAM :

Programming & Development : Alexandra Zaïnal
Concept & original design : Baudouin d'Aumeries
Assistance for programming : Marc-Olivier Méhu
Technical & hardware support : Manuel Goepfert

Contact : metmap@orbifly.com




SOURCES & CREDITS :

   NOAA       Earth
Advisory